Dewpoint
49 48 49 49 50 50 51 52 52 52 52 52 52 53 53 53 54 47 39 38 44 55 60 44 51 45 40 44 47 46 37 30 28 28 29 30 30 31 33 32 34 35 36 39 45
50 50 49 50 51 51 51 51 52 52 52 52 52 52 52 53 49 45 44 54 57 59 47 35 30 45 47 45 47 46 43 38 32 29 28 28 28 29 33 35 34 38 39 39 39
51 50 51 51 51 51 52 52 52 52 52 52 51 52 52 51 42 32 56 56 56 57 42 35 31 28 43 45 43 44 44 44 40 34 31 31 31 31 32 33 34 34 36 36 38
51 51 51 51 51 51 51 52 52 52 52 52 52 52 52 47 -3 33 56 57 61 54 46 34 26 24 24 37 41 38 41 43 42 39 36 33 32 32 33 33 36 35 36 37 36
51 51 51 51 51 51 51 51 52 52 51 51 51 51 47 41 40 22 49 41 32 54 38 34 26 21 19 20 22 31 36 37 39 39 38 37 35 34 34 36 36 36 33 35 38
51 51 51 51 51 52 53 53 53 52 51 51 51 49 43 36 34 33 30 29 27 27 37 28 24 23 22 22 21 25 25 31 33 32 33 33 33 32 33 34 31 31 33 33 35
51 51 51 51 52 53 53 53 52 53 52 51 51 46 42 38 38 32 30 28 29 28 24 26 25 25 25 24 24 22 23 24 24 26 32 32 30 30 31 31 30 31 32 33 33
49 50 51 51 52 52 52 52 52 52 53 53 51 46 38 40 40 40 39 36 33 31 27 23 22 30 28 27 25 26 25 21 24 25 26 27 25 30 32 31 33 32 31 31 32
51 51 51 51 50 51 52 52 52 53 52 52 49 46 39 43 39 38 36 30 27 25 21 18 19 21 24 23 23 23 25 27 26 27 26 26 24 28 31 30 31 32 33 33 32
51 51 51 51 51 52 52 52 51 51 48 46 44 42 40 34 34 34 31 29 27 25 22 21 15 18 21 23 20 22 23 25 27 27 26 26 25 26 27 27 28 28 29 31 32
49 50 51 51 52 52 50 45 31 29 33 29 26 35 33 33 33 26 27 23 29 27 18 19 13 12 16 19 21 23 23 24 27 26 26 26 26 27 29 29 30 30 30 31 33
49 49 51 51 52 52 47 41 32 29 27 30 28 27 28 28 26 26 25 21 20 15 20 16 14 15 15 20 21 20 21 22 21 19 24 26 25 26 27 27 27 28 30 32 33
50 50 50 51 51 46 41 36 34 33 28 27 32 30 25 27 26 25 25 22 17 13 12 20 21 18 15 17 19 19 18 19 20 19 17 17 17 20 21 24 26 28 31 32 33
50 50 50 50 43 42 38 37 35 33 26 27 27 25 24 24 22 25 25 23 17 12 11 9 10 11 14 15 16 17 20 20 19 18 15 17 13 17 17 19 21 22 27 28 28
50 50 50 50 44 41 39 38 36 33 18 20 26 24 22 22 22 19 26 29 18 15 11 9 8 11 10 13 18 15 20 22 20 20 18 17 16 14 19 18 21 21 25 25 25
50 50 50 44 44 43 41 37 36 27 17 26 21 17 19 18 20 25 25 33 32 30 18 11 11 8 7 7 8 10 17 19 18 18 16 15 15 13 14 15 21 28 29 27 28
50 49 48 45 39 42 40 36 24 18 25 22 19 19 17 18 20 26 25 27 29 28 25 16 12 11 10 8 9 9 9 13 12 16 15 17 16 14 20 21 21 20 23 27 29
49 49 46 45 44 42 38 30 17 22 24 27 26 22 17 21 22 27 25 23 27 31 29 24 24 20 23 15 9 7 9 13 10 15 14 17 15 17 19 17 17 19 27 27 34
48 43 44 43 43 40 33 24 20 25 29 26 31 18 16 23 24 28 26 27 26 33 28 24 21 23 20 21 20 19 6 7 11 13 14 17 16 18 18 16 17 18 27 44 53
42 41 42 42 40 39 31 27 27 27 24 27 29 23 21 23 25 26 26 27 31 33 33 25 20 21 19 19 18 18 24 11 13 12 10 15 18 18 18 19 22 22 31 51 54
41 39 42 36 42 36 25 29 29 27 29 28 27 25 24 23 26 26 24 29 35 33 34 30 25 22 24 18 14 17 21 18 14 13 12 13 15 22 20 22 22 23 45 52 54
39 35 39 39 33 32 27 30 32 26 29 32 32 27 27 28 27 27 28 31 33 35 31 31 31 27 23 22 21 20 24 22 13 11 18 15 14 19 22 21 24 30 50 52 54
38 38 41 38 33 27 30 30 31 31 30 30 29 29 31 29 27 31 33 34 34 33 33 34 27 23 19 18 30 25 29 33 30 18 11 13 15 17 21 22 31 47 50 52 53
39 33 35 35 33 30 30 33 32 34 31 29 27 30 31 30 29 29 29 32 34 35 37 37 31 25 19 19 28 30 29 31 30 30 17 12 16 18 18 18 32 47 49 51 53
38 32 34 28 31 33 32 34 33 33 34 32 30 29 29 31 30 28 31 31 31 34 36 34 29 30 29 29 28 28 28 28 29 29 29 27 29 27 27 22 34 47 49 51 53
35 35 37 35 35 32 32 33 35 35 34 32 32 31 33 33 35 32 31 31 31 32 34 35 30 32 29 30 30 28 28 29 29 26 27 29 29 30 29 42 43 47 49 50 52
39 41 40 35 32 31 32 34 35 34 35 34 32 32 32 34 36 35 35 34 33 30 33 36 34 31 26 31 32 28 29 29 26 29 29 27 28 32 35 51 52 50 49 49 51
Lifted_Index
14 14 14 14 14 14 14 14 14 14 14 14 14 14 13 13 12 11 9 9 9 8 7 6 4 5 4 3 1 2 3 3 3 3 2 2 2 1 1 1 1 1 0 0 0
14 14 14 14 13 13 13 13 14 14 14 14 14 14 14 13 12 10 10 10 9 8 7 6 5 4 3 2 1 2 2 3 3 3 2 2 2 1 1 1 0 1 1 1 0
14 14 14 14 13 13 13 13 13 13 13 14 14 14 14 13 11 10 9 9 8 7 7 7 6 4 3 2 2 2 2 2 2 2 2 2 2 2 1 1 0 1 1 1 1
13 13 13 13 13 13 13 13 13 13 13 13 13 14 14 13 10 10 10 9 7 7 7 7 6 5 4 3 2 2 2 1 1 2 2 2 2 2 1 1 1 1 1 1 2
13 13 13 13 13 13 13 13 13 13 13 13 13 13 13 12 11 12 12 11 9 7 7 7 6 5 4 3 3 3 2 2 2 2 2 2 2 2 2 1 1 1 1 2 2
13 13 13 13 13 13 12 12 13 13 13 13 13 13 13 12 13 14 14 13 11 9 8 8 7 6 5 4 4 4 3 3 3 3 3 3 3 3 3 2 2 1 2 2 2
13 13 13 13 13 12 12 12 12 12 12 12 12 13 13 13 14 15 15 14 12 11 10 9 8 7 6 5 5 5 4 4 4 3 3 3 4 4 4 3 2 2 2 2 2
13 13 13 13 13 13 13 13 12 12 12 12 12 12 13 13 13 13 14 13 12 11 10 9 8 7 7 6 6 5 4 4 5 4 3 3 4 5 4 3 2 2 2 2 3
13 13 13 13 13 13 13 13 13 12 12 11 12 12 12 12 11 11 12 13 12 11 10 9 8 8 7 6 5 4 4 5 5 4 3 3 4 4 4 3 3 3 3 3 3
13 13 13 13 13 13 13 13 13 13 12 12 12 12 12 11 11 11 11 12 12 11 10 10 8 7 7 6 5 4 5 5 5 5 4 4 4 4 4 3 3 3 3 3 3
14 14 14 14 14 13 13 13 13 13 13 12 12 11 11 12 12 12 11 12 12 11 11 10 9 7 7 7 6 6 6 5 5 5 4 4 5 5 4 4 4 4 4 4 4
14 14 14 14 13 12 12 12 11 10 9 8 7 8 9 10 11 11 11 11 11 11 11 11 9 9 9 9 8 7 6 6 6 5 5 4 5 5 5 5 4 4 4 4 4
14 14 13 13 12 10 10 9 7 6 4 3 2 3 4 6 7 8 9 10 11 11 11 11 11 11 11 10 9 8 7 7 7 6 5 4 5 5 6 6 5 5 5 5 5
13 12 12 11 9 8 7 5 4 2 1 1 0 1 1 2 3 4 6 7 9 10 10 11 11 11 11 11 10 9 8 8 8 7 6 5 4 5 5 6 6 6 6 5 5
12 11 10 9 7 6 5 3 2 2 1 1 1 1 1 1 1 1 2 4 5 7 9 10 11 10 10 10 10 9 9 8 8 7 6 5 4 3 4 5 5 6 5 5 5
11 10 9 7 6 5 4 3 2 2 1 1 1 1 1 1 1 1 1 1 2 4 6 8 9 9 10 10 10 10 9 8 7 6 5 5 4 3 3 4 5 5 5 5 5
10 9 7 6 5 4 3 3 2 1 1 1 1 1 1 1 1 1 1 1 1 2 3 5 6 7 8 8 9 9 8 6 4 3 3 4 4 3 4 5 5 5 5 5 5
9 8 6 5 5 4 3 3 2 1 1 0 1 1 1 1 1 1 1 1 1 1 1 2 3 5 6 6 7 7 7 6 3 2 3 5 4 5 6 6 5 4 5 5 5
8 7 5 5 4 4 3 3 2 1 1 0 0 0 0 0 0 0 0 0 0 0 1 1 2 3 3 4 5 6 6 6 5 4 3 4 5 5 6 5 4 4 4 4 3
7 6 5 4 4 4 3 2 2 1 0 0 0 0 0 0 0 0 -0 -0 -0 -0 0 1 1 2 2 3 4 5 5 5 5 4 2 2 3 5 4 3 3 3 3 2 1
6 5 4 4 4 3 2 2 1 1 0 -0 -0 0 0 0 -0 -0 0 -0 -0 -0 0 1 1 2 2 2 3 3 4 4 4 4 3 2 3 4 4 3 2 2 2 1 0
6 5 4 5 4 4 2 2 1 1 1 0 0 0 0 0 0 0 0 0 0 0 0 1 1 2 2 2 2 2 2 2 3 5 5 3 3 4 4 3 2 1 0 -0 -1
6 5 5 5 5 4 3 2 1 1 1 1 1 1 1 1 1 0 0 0 0 0 0 0 1 1 2 1 1 1 1 1 2 4 6 5 3 3 3 3 2 0 -1 -1 -1
6 6 6 6 5 5 4 2 1 1 1 1 1 1 1 1 1 1 1 1 1 0 0 0 1 1 1 1 1 1 1 1 2 4 6 6 5 3 3 3 2 -0 -1 -1 -1
6 7 6 6 6 5 4 3 2 1 1 1 1 1 1 0 0 1 1 1 1 1 0 1 1 1 1 1 1 1 1 1 1 3 5 7 6 4 2 2 1 -1 -2 -2 -2
8 8 7 7 6 5 4 4 3 2 2 1 1 1 1 0 0 0 1 1 1 1 1 1 1 1 1 0 0 1 1 0 1 2 5 6 5 4 2 1 -0 -1 -2 -2 -2
9 8 8 7 6 5 5 4 3 2 2 2 2 1 1 0 0 1 1 1 1 1 1 1 1 1 1 0 0 0 1 0 1 2 4 6 5 4 2 0 -1 -2 -3 -3 -2